Time,TemperatureF,DewpointF,PressureIn,WindDirection,WindDirectionDegrees,WindSpeedMPH,WindSpeedGustMPH,Humidity,HourlyPrecipIn,Conditions,Clouds,dailyrainin,SoftwareType,DateUTC
2013-03-31 00:00:00,43.3,30.4,29.93,SSW,202,0.0,0.0,60,0.00,,CLR,0.00,VWS V14.00,2013-03-31 04:00:00,
2013-03-31 00:05:00,43.2,30.3,29.93,SSW,202,0.0,0.0,60,0.00,,FEW120,0.00,VWS V14.00,2013-03-31 04:05:00,
2013-03-31 00:10:00,43.1,30.6,29.93,SSW,202,0.0,0.0,61,0.00,,FEW120,0.00,VWS V14.00,2013-03-31 04:10:00,
2013-03-31 00:15:00,43.0,30.5,29.92,SSW,202,0.0,0.0,61,0.00,,FEW120,0.00,VWS V14.00,2013-03-31 04:15:00,
2013-03-31 00:20:00,43.0,30.5,29.92,SSW,202,0.0,0.0,61,0.00,,FEW120,0.00,VWS V14.00,2013-03-31 04:20:00,
2013-03-31 00:25:00,42.9,30.8,29.92,SSW,202,0.0,0.0,62,0.00,,FEW120,0.00,VWS V14.00,2013-03-31 04:25:00,
2013-03-31 00:30:00,42.9,30.8,29.92,SSW,202,0.0,0.0,62,0.00,,FEW120,0.00,VWS V14.00,2013-03-31 04:30:00,
2013-03-31 00:35:00,42.9,30.8,29.92,SSW,202,0.0,1.0,62,0.00,,FEW120,0.00,VWS V14.00,2013-03-31 04:35:00,
2013-03-31 00:40:00,43.0,30.9,29.91,SSW,202,0.0,0.0,62,0.00,,FEW120,0.00,VWS V14.00,2013-03-31 04:40:00,
2013-03-31 00:45:00,43.1,31.0,29.91,SSW,202,0.0,2.0,62,0.00,,FEW120,0.00,VWS V14.00,2013-03-31 04:45:00,
2013-03-31 00:50:00,43.2,31.1,29.91,SSW,202,0.0,0.0,62,0.00,,FEW120,0.00,VWS V14.00,2013-03-31 04:50:00,
2013-03-31 00:55:00,43.2,31.1,29.91,SSW,202,0.0,0.0,62,0.00,,FEW120,0.00,VWS V14.00,2013-03-31 04:55:00,
2013-03-31 01:00:00,43.2,31.1,29.91,SSW,202,0.0,0.0,62,0.00,,CLR,0.00,VWS V14.00,2013-03-31 05:00:00,
2013-03-31 01:05:00,43.2,30.7,29.90,SSW,202,0.0,1.0,61,0.00,,CLR,0.00,VWS V14.00,2013-03-31 05:05:00,
2013-03-31 01:10:00,43.1,30.6,29.90,SSW,202,0.0,2.0,61,0.00,,CLR,0.00,VWS V14.00,2013-03-31 05:10:00,
2013-03-31 01:15:00,43.1,30.6,29.90,SSW,202,0.0,2.0,61,0.00,,CLR,0.00,VWS V14.00,2013-03-31 05:15:00,
2013-03-31 01:20:00,43.0,30.5,29.89,SSW,202,0.0,0.0,61,0.00,,CLR,0.00,VWS V14.00,2013-03-31 05:20:00,
2013-03-31 01:25:00,42.8,30.3,29.89,SSW,202,0.0,1.0,61,0.00,,CLR,0.00,VWS V14.00,2013-03-31 05:25:00,
2013-03-31 01:30:00,42.7,30.2,29.89,SSW,202,1.0,1.0,61,0.00,,CLR,0.00,VWS V14.00,2013-03-31 05:30:00,
2013-03-31 01:35:00,42.7,30.6,29.88,SSW,202,0.0,1.0,62,0.00,,CLR,0.00,VWS V14.00,2013-03-31 05:35:00,
2013-03-31 01:40:00,42.6,30.5,29.88,SSW,202,0.0,0.0,62,0.00,,CLR,0.00,VWS V14.00,2013-03-31 05:40:00,
2013-03-31 01:45:00,42.5,30.4,29.88,SSW,202,0.0,0.0,62,0.00,,CLR,0.00,VWS V14.00,2013-03-31 05:45:00,
2013-03-31 01:50:00,42.5,30.4,29.88,SSW,202,0.0,0.0,62,0.00,,CLR,0.00,VWS V14.00,2013-03-31 05:50:00,
2013-03-31 01:55:00,42.5,30.4,29.87,SSW,202,0.0,1.0,62,0.00,,CLR,0.00,VWS V14.00,2013-03-31 05:55:00,
2013-03-31 02:00:00,42.6,30.9,29.87,SSW,202,0.0,1.0,63,0.00,,CLR,0.00,VWS V14.00,2013-03-31 06:00:00,
2013-03-31 02:05:00,42.7,30.6,29.87,SSW,202,0.0,1.0,62,0.00,,CLR,0.00,VWS V14.00,2013-03-31 06:05:00,
2013-03-31 02:10:00,42.8,30.7,29.87,SSW,202,0.0,0.0,62,0.00,,CLR,0.00,VWS V14.00,2013-03-31 06:10:00,
2013-03-31 02:15:00,42.8,30.7,29.86,SSW,202,1.0,2.0,62,0.00,,CLR,0.00,VWS V14.00,2013-03-31 06:15:00,
2013-03-31 02:20:00,42.7,30.6,29.86,SSW,202,0.0,0.0,62,0.00,,CLR,0.00,VWS V14.00,2013-03-31 06:20:00,
2013-03-31 02:25:00,42.6,30.5,29.86,SSW,202,0.0,1.0,62,0.00,,CLR,0.00,VWS V14.00,2013-03-31 06:25:00,
2013-03-31 02:30:00,42.4,30.3,29.86,SSW,202,0.0,0.0,62,0.00,,CLR,0.00,VWS V14.00,2013-03-31 06:30:00,
2013-03-31 02:35:00,42.3,30.2,29.85,SSW,202,0.0,0.0,62,0.00,,CLR,0.00,VWS V14.00,2013-03-31 06:35:00,
2013-03-31 02:40:00,42.1,30.0,29.85,SSW,202,0.0,0.0,62,0.00,,CLR,0.00,VWS V14.00,2013-03-31 06:40:00,
2013-03-31 02:45:00,41.9,30.2,29.85,SSW,202,0.0,0.0,63,0.00,,CLR,0.00,VWS V14.00,2013-03-31 06:45:00,
2013-03-31 02:50:00,41.7,30.0,29.85,SSW,202,0.0,0.0,63,0.00,,CLR,0.00,VWS V14.00,2013-03-31 06:50:00,
2013-03-31 02:55:00,41.6,30.7,29.84,SSW,202,0.0,1.0,65,0.00,,CLR,0.00,VWS V14.00,2013-03-31 06:55:00,
2013-03-31 03:00:00,41.6,30.7,29.84,SSW,202,1.0,2.0,65,0.00,,FEW120,0.00,VWS V14.00,2013-03-31 07:00:00,
2013-03-31 03:05:00,41.7,30.8,29.84,SSW,202,0.0,2.0,65,0.00,,FEW120,0.00,VWS V14.00,2013-03-31 07:05:00,
2013-03-31 03:10:00,41.8,30.9,29.84,SSW,202,0.0,2.0,65,0.00,,FEW120,0.00,VWS V14.00,2013-03-31 07:10:00,
2013-03-31 03:15:00,41.9,31.0,29.84,SSW,202,0.0,2.0,65,0.00,,FEW120,0.00,VWS V14.00,2013-03-31 07:15:00,
2013-03-31 03:20:00,41.9,30.6,29.83,SSW,202,0.0,0.0,64,0.00,,FEW120,0.00,VWS V14.00,2013-03-31 07:20:00,
2013-03-31 03:25:00,41.9,31.0,29.83,SSW,202,0.0,0.0,65,0.00,,FEW120,0.00,VWS V14.00,2013-03-31 07:25:00,
2013-03-31 03:30:00,41.8,30.5,29.83,SSW,202,0.0,0.0,64,0.00,,FEW120,0.00,VWS V14.00,2013-03-31 07:30:00,
2013-03-31 03:35:00,41.7,30.4,29.82,SSW,202,0.0,0.0,64,0.00,,FEW120,0.00,VWS V14.00,2013-03-31 07:35:00,
2013-03-31 03:40:00,41.5,30.2,29.82,SSW,202,0.0,0.0,64,0.00,,FEW120,0.00,VWS V14.00,2013-03-31 07:40:00,
2013-03-31 03:45:00,41.4,30.5,29.82,SSW,202,0.0,0.0,65,0.00,,FEW120,0.00,VWS V14.00,2013-03-31 07:45:00,
2013-03-31 03:50:00,41.4,30.5,29.81,SSW,202,1.0,1.0,65,0.00,,FEW120,0.00,VWS V14.00,2013-03-31 07:50:00,
2013-03-31 03:55:00,41.3,30.4,29.81,SSW,202,0.0,4.0,65,0.00,,FEW120,0.00,VWS V14.00,2013-03-31 07:55:00,
2013-03-31 04:00:00,41.3,30.4,29.81,SSW,202,0.0,0.0,65,0.00,,CLR,0.00,VWS V14.00,2013-03-31 08:00:00,
2013-03-31 04:05:00,41.4,30.9,29.81,SSW,202,0.0,3.0,66,0.00,,CLR,0.00,VWS V14.00,2013-03-31 08:05:00,
2013-03-31 04:10:00,41.5,31.0,29.80,South,182,0.0,2.0,66,0.00,,CLR,0.00,VWS V14.00,2013-03-31 08:10:00,
2013-03-31 04:15:00,41.7,30.8,29.80,SSW,211,0.0,5.0,65,0.00,,CLR,0.00,VWS V14.00,2013-03-31 08:15:00,
2013-03-31 04:20:00,42.0,31.1,29.80,SW,215,1.0,4.0,65,0.00,,CLR,0.00,VWS V14.00,2013-03-31 08:20:00,
2013-03-31 04:25:00,42.2,31.3,29.80,SW,214,0.0,4.0,65,0.00,,CLR,0.00,VWS V14.00,2013-03-31 08:25:00,
2013-03-31 04:30:00,42.2,31.3,29.80,SW,214,0.0,1.0,65,0.00,,CLR,0.00,VWS V14.00,2013-03-31 08:30:00,
2013-03-31 04:35:00,42.1,31.2,29.79,South,175,0.0,3.0,65,0.00,,CLR,0.00,VWS V14.00,2013-03-31 08:35:00,
2013-03-31 04:40:00,41.9,31.0,29.79,South,177,0.0,0.0,65,0.00,,CLR,0.00,VWS V14.00,2013-03-31 08:40:00,
2013-03-31 04:45:00,41.8,31.3,29.79,South,177,0.0,1.0,66,0.00,,CLR,0.00,VWS V14.00,2013-03-31 08:45:00,
2013-03-31 04:50:00,41.8,31.3,29.79,SSE,149,0.0,2.0,66,0.00,,CLR,0.00,VWS V14.00,2013-03-31 08:50:00,
2013-03-31 04:55:00,41.8,31.3,29.79,SSW,192,0.0,3.0,66,0.00,,CLR,0.00,VWS V14.00,2013-03-31 08:55:00,
2013-03-31 05:00:00,41.9,31.4,29.79,SSW,202,0.0,0.0,66,0.00,,FEW120,0.00,VWS V14.00,2013-03-31 09:00:00,
2013-03-31 05:05:00,41.8,31.3,29.79,SSW,202,2.0,3.0,66,0.00,,FEW120,0.00,VWS V14.00,2013-03-31 09:05:00,
2013-03-31 05:10:00,41.8,31.7,29.78,SSW,205,0.0,0.0,67,0.00,,FEW120,0.00,VWS V14.00,2013-03-31 09:10:00,
2013-03-31 05:15:00,41.8,31.7,29.78,SSW,205,0.0,0.0,67,0.00,,FEW120,0.00,VWS V14.00,2013-03-31 09:15:00,
2013-03-31 05:20:00,41.8,32.0,29.78,SSW,205,4.0,4.0,68,0.00,,FEW120,0.00,VWS V14.00,2013-03-31 09:20:00,
2013-03-31 05:25:00,41.8,32.0,29.78,SSW,205,0.0,4.0,68,0.00,,FEW120,0.00,VWS V14.00,2013-03-31 09:25:00,
2013-03-31 05:30:00,41.8,32.0,29.78,SSW,200,0.0,4.0,68,0.00,,FEW120,0.00,VWS V14.00,2013-03-31 09:30:00,
2013-03-31 05:35:00,42.0,32.2,29.78,SSW,193,0.0,4.0,68,0.00,,FEW120,0.00,VWS V14.00,2013-03-31 09:35:00,
2013-03-31 05:40:00,42.1,32.3,29.78,SSW,193,0.0,0.0,68,0.00,,FEW120,0.00,VWS V14.00,2013-03-31 09:40:00,
2013-03-31 05:45:00,42.1,32.3,29.77,SSW,193,0.0,1.0,68,0.00,,FEW120,0.00,VWS V14.00,2013-03-31 09:45:00,
2013-03-31 05:50:00,42.1,32.3,29.77,SSW,193,0.0,0.0,68,0.00,,FEW120,0.00,VWS V14.00,2013-03-31 09:50:00,
2013-03-31 05:55:00,42.0,32.6,29.76,SSW,192,0.0,0.0,69,0.00,,FEW120,0.00,VWS V14.00,2013-03-31 09:55:00,
2013-03-31 06:00:00,42.0,32.6,29.76,SSW,193,1.0,2.0,69,0.00,,OVC110,0.00,VWS V14.00,2013-03-31 10:00:00,
2013-03-31 06:05:00,42.0,32.6,29.76,SSW,192,2.0,3.0,69,0.00,,OVC110,0.00,VWS V14.00,2013-03-31 10:05:00,
2013-03-31 06:10:00,42.1,32.7,29.76,South,189,1.0,1.0,69,0.00,,OVC110,0.00,VWS V14.00,2013-03-31 10:10:00,
2013-03-31 06:15:00,42.2,32.8,29.76,South,189,0.0,3.0,69,0.00,,OVC110,0.00,VWS V14.00,2013-03-31 10:15:00,
2013-03-31 06:20:00,42.3,32.9,29.75,SSW,205,1.0,1.0,69,0.00,,OVC110,0.00,VWS V14.00,2013-03-31 10:20:00,
2013-03-31 06:25:00,42.4,33.0,29.76,SSW,198,1.0,3.0,69,0.00,,OVC110,0.00,VWS V14.00,2013-03-31 10:25:00,
2013-03-31 06:30:00,42.5,33.1,29.75,South,187,0.0,0.0,69,0.00,,OVC110,0.00,VWS V14.00,2013-03-31 10:30:00,
2013-03-31 06:35:00,42.5,32.7,29.75,South,187,3.0,3.0,68,0.00,,OVC110,0.00,VWS V14.00,2013-03-31 10:35:00,
2013-03-31 06:40:00,42.7,33.2,29.76,SSW,192,1.0,1.0,69,0.00,,OVC110,0.00,VWS V14.00,2013-03-31 10:40:00,
2013-03-31 06:45:00,42.8,33.0,29.75,South,183,1.0,4.0,68,0.00,,OVC110,0.00,VWS V14.00,2013-03-31 10:45:00,
2013-03-31 06:50:00,42.9,33.4,29.75,SSW,193,1.0,3.0,69,0.00,,OVC110,0.00,VWS V14.00,2013-03-31 10:50:00,
2013-03-31 06:55:00,42.9,33.1,29.75,SSW,195,0.0,4.0,68,0.00,,OVC110,0.00,VWS V14.00,2013-03-31 10:55:00,
2013-03-31 07:00:00,42.9,33.4,29.75,SSW,208,0.0,2.0,69,0.00,,OVC110,0.00,VWS V14.00,2013-03-31 11:00:00,
2013-03-31 07:05:00,42.9,33.4,29.75,SSW,207,0.0,4.0,69,0.00,,OVC100,0.00,VWS V14.00,2013-03-31 11:05:00,
2013-03-31 07:10:00,42.9,33.4,29.75,SSW,195,0.0,1.0,69,0.00,,OVC100,0.00,VWS V14.00,2013-03-31 11:10:00,
2013-03-31 07:15:00,42.9,33.4,29.75,SSW,195,2.0,3.0,69,0.00,,OVC100,0.00,VWS V14.00,2013-03-31 11:15:00,
2013-03-31 07:20:00,42.9,33.4,29.75,SSW,195,0.0,1.0,69,0.00,,OVC100,0.00,VWS V14.00,2013-03-31 11:20:00,
2013-03-31 07:25:00,42.8,33.7,29.75,SSW,195,0.0,2.0,70,0.00,,OVC100,0.00,VWS V14.00,2013-03-31 11:25:00,
2013-03-31 07:30:00,42.7,33.6,29.74,SSW,195,0.0,0.0,70,0.00,,OVC100,0.00,VWS V14.00,2013-03-31 11:30:00,
2013-03-31 07:35:00,42.6,33.5,29.75,SSW,195,0.0,3.0,70,0.00,,OVC100,0.00,VWS V14.00,2013-03-31 11:35:00,
2013-03-31 07:40:00,42.6,33.5,29.74,SW,224,0.0,0.0,70,0.00,,OVC100,0.00,VWS V14.00,2013-03-31 11:40:00,
2013-03-31 07:45:00,42.6,33.9,29.74,SW,224,0.0,3.0,71,0.00,,OVC100,0.00,VWS V14.00,2013-03-31 11:45:00,
2013-03-31 07:50:00,42.6,33.9,29.75,SSW,201,0.0,1.0,71,0.00,,OVC100,0.00,VWS V14.00,2013-03-31 11:50:00,
2013-03-31 07:55:00,42.6,33.9,29.75,SSW,201,0.0,1.0,71,0.00,,OVC100,0.00,VWS V14.00,2013-03-31 11:55:00,
2013-03-31 08:00:00,42.6,33.9,29.75,SSW,201,0.0,4.0,71,0.00,,OVC100,0.00,VWS V14.00,2013-03-31 12:00:00,
2013-03-31 08:05:00,42.6,33.9,29.75,South,187,0.0,4.0,71,0.00,,OVC090,0.00,VWS V14.00,2013-03-31 12:05:00,
2013-03-31 08:10:00,42.6,33.9,29.75,South,188,0.0,2.0,71,0.00,,OVC090,0.00,VWS V14.00,2013-03-31 12:10:00,
2013-03-31 08:15:00,42.6,33.9,29.74,South,188,0.0,3.0,71,0.00,,OVC090,0.00,VWS V14.00,2013-03-31 12:15:00,
2013-03-31 08:20:00,42.7,34.0,29.74,SSW,209,0.0,2.0,71,0.00,,OVC090,0.00,VWS V14.00,2013-03-31 12:20:00,
2013-03-31 08:25:00,42.9,34.2,29.74,SSW,209,0.0,2.0,71,0.00,,OVC090,0.00,VWS V14.00,2013-03-31 12:25:00,
2013-03-31 08:30:00,43.0,34.2,29.74,SSW,209,0.0,0.0,71,0.00,,OVC090,0.00,VWS V14.00,2013-03-31 12:30:00,
2013-03-31 08:35:00,43.3,34.5,29.74,SSW,209,0.0,3.0,71,0.00,,OVC090,0.00,VWS V14.00,2013-03-31 12:35:00,
2013-03-31 08:40:00,43.5,34.7,29.74,SSW,192,1.0,3.0,71,0.00,,OVC090,0.00,VWS V14.00,2013-03-31 12:40:00,
2013-03-31 08:45:00,43.8,34.7,29.74,SSW,192,0.0,4.0,70,0.00,,OVC090,0.00,VWS V14.00,2013-03-31 12:45:00,
2013-03-31 08:50:00,44.1,35.0,29.73,South,191,0.0,1.0,70,0.00,,OVC090,0.00,VWS V14.00,2013-03-31 12:50:00,
2013-03-31 08:55:00,44.3,34.8,29.73,SSW,192,0.0,3.0,69,0.00,,OVC090,0.00,VWS V14.00,2013-03-31 12:55:00,
2013-03-31 09:00:00,44.5,35.0,29.73,SSW,205,5.0,6.0,69,0.00,,OVC090,0.00,VWS V14.00,2013-03-31 13:00:00,
2013-03-31 09:05:00,44.8,35.3,29.73,SW,227,0.0,6.0,69,0.00,,OVC085,0.00,VWS V14.00,2013-03-31 13:05:00,
2013-03-31 09:10:00,45.0,35.1,29.73,SSW,197,0.0,4.0,68,0.00,,OVC085,0.00,VWS V14.00,2013-03-31 13:10:00,
2013-03-31 09:15:00,45.3,35.4,29.73,WSW,244,0.0,7.0,68,0.00,,OVC085,0.00,VWS V14.00,2013-03-31 13:15:00,
2013-03-31 09:20:00,45.7,35.8,29.73,SW,236,3.0,4.0,68,0.00,,OVC085,0.00,VWS V14.00,2013-03-31 13:20:00,
2013-03-31 09:25:00,46.0,36.0,29.73,SW,232,3.0,10.0,68,0.00,,OVC085,0.00,VWS V14.00,2013-03-31 13:25:00,
2013-03-31 09:30:00,46.0,36.0,29.73,SSW,209,4.0,9.0,68,0.00,,OVC085,0.00,VWS V14.00,2013-03-31 13:30:00,
2013-03-31 09:35:00,46.0,36.4,29.72,SW,234,5.0,10.0,69,0.00,,OVC085,0.00,VWS V14.00,2013-03-31 13:35:00,
2013-03-31 09:40:00,45.9,36.7,29.72,WSW,241,1.0,6.0,70,0.00,,OVC085,0.00,VWS V14.00,2013-03-31 13:40:00,
2013-03-31 09:45:00,46.0,36.8,29.72,SW,226,0.0,7.0,70,0.00,,OVC085,0.00,VWS V14.00,2013-03-31 13:45:00,
2013-03-31 09:50:00,46.0,37.1,29.72,West,263,3.0,5.0,71,0.00,,OVC085,0.00,VWS V14.00,2013-03-31 13:50:00,
2013-03-31 09:55:00,46.0,37.5,29.72,SW,225,6.0,7.0,72,0.00,,OVC085,0.00,VWS V14.00,2013-03-31 13:55:00,
2013-03-31 10:00:00,45.7,37.5,29.71,SW,229,4.0,5.0,73,0.00,,OVC085,0.00,VWS V14.00,2013-03-31 14:00:00,
2013-03-31 10:05:00,45.4,38.0,29.72,WSW,240,4.0,9.0,75,0.00,,-RA,0.00,VWS V14.00,2013-03-31 14:05:00,
2013-03-31 10:10:00,45.2,38.4,29.72,WSW,240,2.0,4.0,77,0.00,,-RA,0.00,VWS V14.00,2013-03-31 14:10:00,
2013-03-31 10:15:00,45.0,38.2,29.72,WSW,237,2.0,6.0,77,0.00,,-RA,0.00,VWS V14.00,2013-03-31 14:15:00,
2013-03-31 10:20:00,45.0,38.9,29.72,WSW,257,5.0,5.0,79,0.00,,-RA,0.00,VWS V14.00,2013-03-31 14:20:00,
2013-03-31 10:25:00,44.7,38.9,29.72,WSW,238,0.0,6.0,80,0.00,,-RA,0.00,VWS V14.00,2013-03-31 14:25:00,
2013-03-31 10:30:00,44.4,39.3,29.71,WSW,246,1.0,6.0,82,0.00,,-RA,0.00,VWS V14.00,2013-03-31 14:30:00,
2013-03-31 10:35:00,44.1,39.3,29.72,SW,225,6.0,10.0,83,0.00,,-RA,0.00,VWS V14.00,2013-03-31 14:35:00,
2013-03-31 10:40:00,44.0,39.5,29.72,WNW,284,0.0,2.0,84,0.00,,-RA,0.00,VWS V14.00,2013-03-31 14:40:00,
2013-03-31 10:45:00,44.1,39.9,29.71,SW,229,4.0,6.0,85,0.00,,-RA,0.00,VWS V14.00,2013-03-31 14:45:00,
2013-03-31 10:50:00,44.1,40.2,29.71,WSW,257,4.0,6.0,86,0.00,,-RA,0.00,VWS V14.00,2013-03-31 14:50:00,
2013-03-31 10:55:00,44.2,40.3,29.72,SW,219,1.0,7.0,86,0.00,,-RA,0.00,VWS V14.00,2013-03-31 14:55:00,
2013-03-31 11:00:00,44.2,40.3,29.72,WSW,240,0.0,0.0,86,0.00,,-RA,0.00,VWS V14.00,2013-03-31 15:00:00,
2013-03-31 11:05:00,44.5,40.9,29.71,WSW,250,3.0,6.0,87,0.00,,,0.00,VWS V14.00,2013-03-31 15:05:00,
2013-03-31 11:10:00,44.9,41.3,29.71,WSW,238,3.0,5.0,87,0.00,,,0.00,VWS V14.00,2013-03-31 15:10:00,
2013-03-31 11:15:00,45.1,41.5,29.71,WSW,250,2.0,10.0,87,0.00,,,0.00,VWS V14.00,2013-03-31 15:15:00,
2013-03-31 11:20:00,45.4,41.8,29.71,WSW,250,3.0,6.0,87,0.00,,,0.00,VWS V14.00,2013-03-31 15:20:00,
2013-03-31 11:25:00,45.4,41.5,29.71,WSW,245,3.0,9.0,86,0.00,,,0.00,VWS V14.00,2013-03-31 15:25:00,
2013-03-31 11:30:00,45.4,41.5,29.71,West,277,1.0,4.0,86,0.00,,,0.00,VWS V14.00,2013-03-31 15:30:00,
2013-03-31 11:35:00,45.4,41.5,29.71,West,259,1.0,10.0,86,0.00,,,0.00,VWS V14.00,2013-03-31 15:35:00,
2013-03-31 11:40:00,45.4,41.5,29.71,West,268,0.0,3.0,86,0.00,,,0.00,VWS V14.00,2013-03-31 15:40:00,
2013-03-31 11:45:00,45.6,41.7,29.71,WSW,241,3.0,7.0,86,0.00,,,0.00,VWS V14.00,2013-03-31 15:45:00,
2013-03-31 11:50:00,45.7,42.1,29.72,WSW,253,2.0,5.0,87,0.00,,,0.00,VWS V14.00,2013-03-31 15:50:00,
2013-03-31 11:55:00,45.8,41.9,29.72,WSW,252,0.0,5.0,86,0.00,,,0.00,VWS V14.00,2013-03-31 15:55:00,
2013-03-31 12:00:00,46.0,42.0,29.72,WSW,257,0.0,5.0,86,0.00,,,0.00,VWS V14.00,2013-03-31 16:00:00,
2013-03-31 12:05:00,46.2,42.2,29.72,West,269,2.0,7.0,86,0.00,,OVC028,0.00,VWS V14.00,2013-03-31 16:05:00,
2013-03-31 12:10:00,46.4,42.5,29.72,West,267,0.0,0.0,86,0.00,,OVC028,0.00,VWS V14.00,2013-03-31 16:10:00,
2013-03-31 12:15:00,46.7,42.7,29.72,WSW,241,3.0,7.0,86,0.00,,OVC028,0.00,VWS V14.00,2013-03-31 16:15:00,
2013-03-31 12:20:00,46.8,42.8,29.71,WSW,247,2.0,6.0,86,0.00,,OVC028,0.00,VWS V14.00,2013-03-31 16:20:00,
2013-03-31 12:25:00,47.0,43.0,29.72,WSW,242,3.0,11.0,86,0.00,,OVC028,0.00,VWS V14.00,2013-03-31 16:25:00,
2013-03-31 12:30:00,47.3,43.0,29.71,West,281,1.0,4.0,85,0.00,,OVC028,0.00,VWS V14.00,2013-03-31 16:30:00,
2013-03-31 12:35:00,47.4,43.1,29.71,WSW,252,0.0,10.0,85,0.00,,OVC028,0.00,VWS V14.00,2013-03-31 16:35:00,
2013-03-31 12:40:00,47.3,43.0,29.71,SW,214,0.0,10.0,85,0.00,,OVC028,0.00,VWS V14.00,2013-03-31 16:40:00,
2013-03-31 12:45:00,47.3,43.0,29.71,West,277,3.0,10.0,85,0.00,,OVC028,0.00,VWS V14.00,2013-03-31 16:45:00,
2013-03-31 12:50:00,47.2,42.9,29.71,SW,233,0.0,1.0,85,0.00,,OVC028,0.00,VWS V14.00,2013-03-31 16:50:00,
2013-03-31 12:55:00,47.3,43.0,29.71,West,271,0.0,5.0,85,0.00,,OVC028,0.00,VWS V14.00,2013-03-31 16:55:00,
2013-03-31 13:00:00,47.3,43.0,29.71,SW,227,2.0,6.0,85,0.00,,OVC028,0.00,VWS V14.00,2013-03-31 17:00:00,
2013-03-31 13:05:00,47.3,43.0,29.71,West,277,0.0,10.0,85,0.00,,,0.00,VWS V14.00,2013-03-31 17:05:00,
2013-03-31 13:10:00,47.5,43.5,29.71,West,259,2.0,3.0,86,0.00,,,0.00,VWS V14.00,2013-03-31 17:10:00,
2013-03-31 13:15:00,47.9,43.9,29.70,West,259,0.0,10.0,86,0.00,,,0.00,VWS V14.00,2013-03-31 17:15:00,
2013-03-31 13:20:00,48.5,44.5,29.70,SW,215,3.0,4.0,86,0.00,,,0.00,VWS V14.00,2013-03-31 17:20:00,
2013-03-31 13:25:00,49.1,44.8,29.69,WSW,253,1.0,9.0,85,0.00,,,0.00,VWS V14.00,2013-03-31 17:25:00,
2013-03-31 13:30:00,49.7,45.1,29.69,WSW,242,5.0,6.0,84,0.00,,,0.00,VWS V14.00,2013-03-31 17:30:00,
2013-03-31 13:35:00,50.2,44.9,29.69,SW,215,4.0,12.0,82,0.00,,,0.00,VWS V14.00,2013-03-31 17:35:00,
2013-03-31 13:40:00,50.5,45.2,29.69,SW,223,3.0,4.0,82,0.00,,,0.00,VWS V14.00,2013-03-31 17:40:00,
2013-03-31 13:45:00,51.6,45.3,29.69,WSW,246,6.0,11.0,79,0.00,,,0.00,VWS V14.00,2013-03-31 17:45:00,
2013-03-31 13:50:00,52.4,45.4,29.69,WSW,237,3.0,9.0,77,0.00,,,0.00,VWS V14.00,2013-03-31 17:50:00,
2013-03-31 13:55:00,53.0,44.2,29.68,SW,229,5.0,13.0,72,0.00,,,0.00,VWS V14.00,2013-03-31 17:55:00,
2013-03-31 14:00:00,53.1,44.0,29.68,West,276,2.0,10.0,71,0.00,,,0.00,VWS V14.00,2013-03-31 18:00:00,
2013-03-31 14:05:00,53.2,44.0,29.68,WSW,238,5.0,11.0,71,0.00,,OVC033,0.00,VWS V14.00,2013-03-31 18:05:00,
2013-03-31 14:10:00,53.9,45.1,29.68,WNW,295,9.0,11.0,72,0.00,,OVC033,0.00,VWS V14.00,2013-03-31 18:10:00,
2013-03-31 14:15:00,54.7,44.0,29.68,WNW,283,5.0,14.0,67,0.00,,OVC033,0.00,VWS V14.00,2013-03-31 18:15:00,
2013-03-31 14:20:00,54.6,44.3,29.68,West,269,6.0,11.0,68,0.00,,OVC033,0.00,VWS V14.00,2013-03-31 18:20:00,
2013-03-31 14:25:00,55.0,43.1,29.68,West,264,9.0,12.0,64,0.00,,OVC033,0.00,VWS V14.00,2013-03-31 18:25:00,
2013-03-31 14:30:00,54.8,42.5,29.67,West,263,9.0,12.0,63,0.00,,OVC033,0.00,VWS V14.00,2013-03-31 18:30:00,
2013-03-31 14:35:00,54.8,42.5,29.67,WNW,291,4.0,13.0,63,0.00,,SCT019,0.00,VWS V14.00,2013-03-31 18:35:00,
2013-03-31 14:40:00,55.6,43.2,29.67,SSW,209,11.0,11.0,63,0.00,,SCT019,0.00,VWS V14.00,2013-03-31 18:40:00,
2013-03-31 14:45:00,56.1,41.5,29.67,West,264,2.0,15.0,58,0.00,,SCT019,0.00,VWS V14.00,2013-03-31 18:45:00,
2013-03-31 14:50:00,56.5,42.4,29.67,West,272,9.0,16.0,59,0.00,,SCT019,0.00,VWS V14.00,2013-03-31 18:50:00,
2013-03-31 14:55:00,57.1,41.1,29.66,WSW,240,6.0,16.0,55,0.00,,SCT019,0.00,VWS V14.00,2013-03-31 18:55:00,
2013-03-31 15:00:00,57.8,41.8,29.66,WSW,246,0.0,11.0,55,0.00,,SCT019,0.00,VWS V14.00,2013-03-31 19:00:00,
2013-03-31 15:05:00,58.2,41.7,29.66,SSW,199,5.0,15.0,54,0.00,,SCT038,0.00,VWS V14.00,2013-03-31 19:05:00,
2013-03-31 15:10:00,58.0,41.9,29.66,West,276,11.0,16.0,55,0.00,,SCT038,0.00,VWS V14.00,2013-03-31 19:10:00,
2013-03-31 15:15:00,58.6,41.5,29.65,West,261,10.0,16.0,53,0.00,,SCT038,0.00,VWS V14.00,2013-03-31 19:15:00,
2013-03-31 15:20:00,59.0,41.4,29.66,West,267,0.0,5.0,52,0.00,,SCT038,0.00,VWS V14.00,2013-03-31 19:20:00,
2013-03-31 15:25:00,59.5,41.4,29.65,West,279,12.0,17.0,51,0.00,,SCT038,0.00,VWS V14.00,2013-03-31 19:25:00,
2013-03-31 15:30:00,59.8,40.6,29.64,West,270,3.0,7.0,49,0.00,,SCT038,0.00,VWS V14.00,2013-03-31 19:30:00,
2013-03-31 15:35:00,60.1,40.4,29.64,SSW,211,11.0,16.0,48,0.00,,SCT038,0.00,VWS V14.00,2013-03-31 19:35:00,
2013-03-31 15:40:00,59.7,40.0,29.64,WSW,238,6.0,12.0,48,0.00,,SCT038,0.00,VWS V14.00,2013-03-31 19:40:00,
2013-03-31 15:45:00,59.5,40.3,29.64,WNW,286,1.0,13.0,49,0.00,,SCT038,0.00,VWS V14.00,2013-03-31 19:45:00,
2013-03-31 15:50:00,59.6,39.4,29.64,West,263,3.0,12.0,47,0.00,,SCT038,0.00,VWS V14.00,2013-03-31 19:50:00,
2013-03-31 15:55:00,59.7,38.9,29.64,WNW,284,10.0,19.0,46,0.00,,SCT038,0.00,VWS V14.00,2013-03-31 19:55:00,
2013-03-31 16:00:00,60.4,39.0,29.64,West,273,4.0,14.0,45,0.00,,SCT038,0.00,VWS V14.00,2013-03-31 20:00:00,
2013-03-31 16:05:00,60.7,38.1,29.64,WSW,242,6.0,17.0,43,0.00,,SCT060,0.00,VWS V14.00,2013-03-31 20:05:00,
2013-03-31 16:10:00,60.2,36.4,29.63,West,263,9.0,13.0,41,0.00,,SCT060,0.00,VWS V14.00,2013-03-31 20:10:00,
2013-03-31 16:15:00,59.3,38.0,29.64,West,271,4.0,19.0,45,0.00,,SCT060,0.00,VWS V14.00,2013-03-31 20:15:00,
2013-03-31 16:20:00,60.4,36.0,29.64,NW,307,6.0,11.0,40,0.00,,SCT060,0.00,VWS V14.00,2013-03-31 20:20:00,
2013-03-31 16:25:00,60.8,36.3,29.63,WNW,286,10.0,19.0,40,0.00,,SCT060,0.00,VWS V14.00,2013-03-31 20:25:00,
2013-03-31 16:30:00,60.8,35.7,29.63,WSW,257,5.0,19.0,39,0.00,,SCT060,0.00,VWS V14.00,2013-03-31 20:30:00,
2013-03-31 16:35:00,59.8,34.8,29.63,WNW,300,12.0,19.0,39,0.00,,SCT060,0.00,VWS V14.00,2013-03-31 20:35:00,
2013-03-31 16:40:00,60.2,35.8,29.63,WSW,239,11.0,21.0,40,0.00,,SCT060,0.00,VWS V14.00,2013-03-31 20:40:00,
2013-03-31 16:45:00,60.3,35.9,29.63,WSW,255,4.0,21.0,40,0.00,,SCT060,0.00,VWS V14.00,2013-03-31 20:45:00,
2013-03-31 16:50:00,60.4,34.7,29.62,West,279,12.0,14.0,38,0.00,,SCT060,0.00,VWS V14.00,2013-03-31 20:50:00,
2013-03-31 16:55:00,60.5,34.8,29.62,WNW,292,3.0,22.0,38,0.00,,SCT060,0.00,VWS V14.00,2013-03-31 20:55:00,
2013-03-31 17:00:00,60.2,35.2,29.62,WNW,287,10.0,10.0,39,0.00,,SCT060,0.00,VWS V14.00,2013-03-31 21:00:00,
2013-03-31 17:05:00,60.2,34.5,29.62,West,273,14.0,19.0,38,0.00,,FEW075,0.00,VWS V14.00,2013-03-31 21:05:00,
2013-03-31 17:10:00,60.6,33.5,29.63,WNW,286,12.0,18.0,36,0.00,,FEW075,0.00,VWS V14.00,2013-03-31 21:10:00,
2013-03-31 17:15:00,60.2,33.2,29.62,West,277,6.0,21.0,36,0.00,,FEW075,0.00,VWS V14.00,2013-03-31 21:15:00,
2013-03-31 17:20:00,59.8,34.2,29.62,WNW,283,12.0,12.0,38,0.00,,FEW075,0.00,VWS V14.00,2013-03-31 21:20:00,
2013-03-31 17:25:00,59.7,34.7,29.62,WNW,288,4.0,15.0,39,0.00,,FEW075,0.00,VWS V14.00,2013-03-31 21:25:00,
2013-03-31 17:30:00,59.4,33.8,29.62,West,278,4.0,10.0,38,0.00,,FEW075,0.00,VWS V14.00,2013-03-31 21:30:00,
2013-03-31 17:35:00,59.8,34.2,29.62,WSW,249,4.0,21.0,38,0.00,,FEW075,0.00,VWS V14.00,2013-03-31 21:35:00,
2013-03-31 17:40:00,60.3,33.9,29.62,West,261,9.0,15.0,37,0.00,,FEW075,0.00,VWS V14.00,2013-03-31 21:40:00,
2013-03-31 17:45:00,60.3,33.3,29.62,West,273,9.0,22.0,36,0.00,,FEW075,0.00,VWS V14.00,2013-03-31 21:45:00,
2013-03-31 17:50:00,59.4,33.8,29.63,West,265,10.0,15.0,38,0.00,,FEW075,0.00,VWS V14.00,2013-03-31 21:50:00,
2013-03-31 17:55:00,58.5,33.7,29.63,West,274,2.0,15.0,39,0.00,,FEW075,0.00,VWS V14.00,2013-03-31 21:55:00,
2013-03-31 18:00:00,58.2,33.4,29.63,West,281,0.0,12.0,39,0.00,,FEW075,0.00,VWS V14.00,2013-03-31 22:00:00,
2013-03-31 18:05:00,58.6,34.4,29.62,WNW,294,7.0,12.0,40,0.00,,SCT075,0.00,VWS V14.00,2013-03-31 22:05:00,
2013-03-31 18:10:00,58.7,33.2,29.63,West,275,3.0,13.0,38,0.00,,SCT075,0.00,VWS V14.00,2013-03-31 22:10:00,
2013-03-31 18:15:00,58.4,32.9,29.63,WSW,252,5.0,18.0,38,0.00,,SCT075,0.00,VWS V14.00,2013-03-31 22:15:00,
2013-03-31 18:20:00,57.9,33.1,29.62,West,259,3.0,12.0,39,0.00,,SCT075,0.00,VWS V14.00,2013-03-31 22:20:00,
2013-03-31 18:25:00,57.7,33.6,29.63,West,279,12.0,18.0,40,0.00,,SCT075,0.00,VWS V14.00,2013-03-31 22:25:00,
2013-03-31 18:30:00,57.5,33.4,29.62,West,271,10.0,20.0,40,0.00,,SCT075,0.00,VWS V14.00,2013-03-31 22:30:00,
2013-03-31 18:35:00,57.3,33.2,29.63,West,264,5.0,20.0,40,0.00,,SCT075,0.00,VWS V14.00,2013-03-31 22:35:00,
2013-03-31 18:40:00,57.2,33.7,29.63,West,277,6.0,11.0,41,0.00,,SCT075,0.00,VWS V14.00,2013-03-31 22:40:00,
2013-03-31 18:45:00,57.1,33.0,29.63,WSW,242,2.0,19.0,40,0.00,,SCT075,0.00,VWS V14.00,2013-03-31 22:45:00,
2013-03-31 18:50:00,57.0,32.9,29.63,WSW,252,3.0,12.0,40,0.00,,SCT075,0.00,VWS V14.00,2013-03-31 22:50:00,
2013-03-31 18:55:00,57.0,32.9,29.63,West,266,3.0,18.0,40,0.00,,SCT075,0.00,VWS V14.00,2013-03-31 22:55:00,
2013-03-31 19:00:00,56.8,33.4,29.63,West,280,9.0,14.0,41,0.00,,SCT075,0.00,VWS V14.00,2013-03-31 23:00:00,
2013-03-31 19:05:00,56.6,33.8,29.63,West,261,2.0,14.0,42,0.00,,OVC085,0.00,VWS V14.00,2013-03-31 23:05:00,
2013-03-31 19:10:00,56.3,33.5,29.63,West,267,10.0,14.0,42,0.00,,OVC085,0.00,VWS V14.00,2013-03-31 23:10:00,
2013-03-31 19:15:00,56.1,33.3,29.63,WNW,288,5.0,14.0,42,0.00,,OVC085,0.00,VWS V14.00,2013-03-31 23:15:00,
2013-03-31 19:20:00,56.2,33.4,29.63,WSW,245,0.0,10.0,42,0.00,,OVC085,0.00,VWS V14.00,2013-03-31 23:20:00,
2013-03-31 19:25:00,56.0,32.7,29.63,West,269,10.0,15.0,41,0.00,,OVC085,0.00,VWS V14.00,2013-03-31 23:25:00,
2013-03-31 19:30:00,55.9,33.2,29.63,West,280,4.0,14.0,42,0.00,,OVC085,0.00,VWS V14.00,2013-03-31 23:30:00,
2013-03-31 19:35:00,55.8,31.9,29.63,West,281,0.0,14.0,40,0.00,,OVC085,0.00,VWS V14.00,2013-03-31 23:35:00,
2013-03-31 19:40:00,55.6,31.7,29.63,WNW,299,5.0,11.0,40,0.00,,OVC085,0.00,VWS V14.00,2013-03-31 23:40:00,
2013-03-31 19:45:00,55.3,32.0,29.63,West,279,3.0,13.0,41,0.00,,OVC085,0.00,VWS V14.00,2013-03-31 23:45:00,
2013-03-31 19:50:00,54.7,31.5,29.63,West,264,18.0,18.0,41,0.00,,OVC085,0.00,VWS V14.00,2013-03-31 23:50:00,
2013-03-31 19:55:00,54.2,32.2,29.64,NW,311,1.0,18.0,43,0.00,,OVC085,0.00,VWS V14.00,2013-03-31 23:55:00,
2013-03-31 20:00:00,53.7,32.3,29.64,NW,311,7.0,12.0,44,0.00,,BKN100,0.00,VWS V14.00,2013-04-01 00:00:00,
2013-03-31 20:05:00,53.5,32.7,29.64,WNW,290,0.0,15.0,45,0.00,,BKN100,0.00,VWS V14.00,2013-04-01 00:05:00,
2013-03-31 20:10:00,53.3,32.5,29.64,WNW,301,0.0,7.0,45,0.00,,BKN100,0.00,VWS V14.00,2013-04-01 00:10:00,
2013-03-31 20:15:00,53.2,32.4,29.64,West,275,4.0,13.0,45,0.00,,BKN100,0.00,VWS V14.00,2013-04-01 00:15:00,
2013-03-31 20:20:00,53.1,32.9,29.64,West,272,4.0,10.0,46,0.00,,BKN100,0.00,VWS V14.00,2013-04-01 00:20:00,
2013-03-31 20:25:00,53.0,32.8,29.64,West,269,10.0,10.0,46,0.00,,BKN100,0.00,VWS V14.00,2013-04-01 00:25:00,
2013-03-31 20:30:00,52.8,33.2,29.64,West,259,6.0,6.0,47,0.00,,BKN100,0.00,VWS V14.00,2013-04-01 00:30:00,
2013-03-31 20:35:00,52.5,33.4,29.65,WNW,286,0.0,7.0,48,0.00,,BKN100,0.00,VWS V14.00,2013-04-01 00:35:00,
2013-03-31 20:40:00,52.2,33.1,29.65,NW,309,0.0,0.0,48,0.00,,BKN100,0.00,VWS V14.00,2013-04-01 00:40:00,
2013-03-31 20:45:00,52.0,34.0,29.65,West,273,7.0,7.0,50,0.00,,BKN100,0.00,VWS V14.00,2013-04-01 00:45:00,
2013-03-31 20:50:00,51.9,34.4,29.65,WNW,286,1.0,5.0,51,0.00,,BKN100,0.00,VWS V14.00,2013-04-01 00:50:00,
2013-03-31 20:55:00,51.5,34.5,29.65,WNW,282,1.0,10.0,52,0.00,,BKN100,0.00,VWS V14.00,2013-04-01 00:55:00,
2013-03-31 21:00:00,51.2,34.7,29.65,WNW,283,3.0,4.0,53,0.00,,BKN100,0.00,VWS V14.00,2013-04-01 01:00:00,
2013-03-31 21:05:00,50.7,34.7,29.64,WNW,283,0.0,4.0,54,0.00,,BKN100,0.00,VWS V14.00,2013-04-01 01:05:00,
2013-03-31 21:10:00,50.4,34.9,29.65,WNW,302,4.0,7.0,55,0.00,,BKN100,0.00,VWS V14.00,2013-04-01 01:10:00,
2013-03-31 21:15:00,50.3,35.2,29.65,WNW,288,2.0,7.0,56,0.00,,BKN100,0.00,VWS V14.00,2013-04-01 01:15:00,
2013-03-31 21:20:00,50.2,35.6,29.65,West,270,0.0,4.0,57,0.00,,BKN100,0.00,VWS V14.00,2013-04-01 01:20:00,
2013-03-31 21:25:00,50.0,35.8,29.66,West,279,2.0,6.0,58,0.00,,BKN100,0.00,VWS V14.00,2013-04-01 01:25:00,
2013-03-31 21:30:00,49.8,35.6,29.65,West,275,1.0,6.0,58,0.00,,BKN100,0.00,VWS V14.00,2013-04-01 01:30:00,
2013-03-31 21:35:00,49.6,35.9,29.65,West,277,0.0,6.0,59,0.00,,BKN100,0.00,VWS V14.00,2013-04-01 01:35:00,
2013-03-31 21:40:00,49.4,36.1,29.65,West,277,0.0,0.0,60,0.00,,BKN100,0.00,VWS V14.00,2013-04-01 01:40:00,
2013-03-31 21:45:00,49.2,36.3,29.66,West,277,0.0,1.0,61,0.00,,BKN100,0.00,VWS V14.00,2013-04-01 01:45:00,
2013-03-31 21:50:00,49.0,36.2,29.66,West,276,0.0,1.0,61,0.00,,BKN100,0.00,VWS V14.00,2013-04-01 01:50:00,
2013-03-31 21:55:00,48.6,36.2,29.66,West,270,0.0,4.0,62,0.00,,BKN100,0.00,VWS V14.00,2013-04-01 01:55:00,
2013-03-31 22:00:00,48.2,35.8,29.66,West,270,0.0,1.0,62,0.00,,BKN100,0.00,VWS V14.00,2013-04-01 02:00:00,
2013-03-31 22:05:00,48.0,36.0,29.66,West,269,0.0,1.0,63,0.00,,BKN060,0.00,VWS V14.00,2013-04-01 02:05:00,
2013-03-31 22:10:00,47.9,35.9,29.66,West,269,0.0,2.0,63,0.00,,BKN060,0.00,VWS V14.00,2013-04-01 02:10:00,
2013-03-31 22:15:00,47.9,35.9,29.66,West,270,0.0,4.0,63,0.00,,BKN060,0.00,VWS V14.00,2013-04-01 02:15:00,
2013-03-31 22:20:00,47.9,36.3,29.66,West,263,0.0,0.0,64,0.00,,BKN060,0.00,VWS V14.00,2013-04-01 02:20:00,
2013-03-31 22:25:00,47.7,36.1,29.66,West,263,0.0,2.0,64,0.00,,BKN060,0.00,VWS V14.00,2013-04-01 02:25:00,
2013-03-31 22:30:00,47.4,36.2,29.66,West,263,0.0,0.0,65,0.00,,BKN060,0.00,VWS V14.00,2013-04-01 02:30:00,
2013-03-31 22:35:00,47.0,35.9,29.66,WNW,287,4.0,10.0,65,0.00,,BKN060,0.00,VWS V14.00,2013-04-01 02:35:00,
2013-03-31 22:40:00,47.1,36.3,29.66,WSW,249,9.0,13.0,66,0.00,,BKN060,0.00,VWS V14.00,2013-04-01 02:40:00,
2013-03-31 22:45:00,47.5,36.3,29.66,West,273,12.0,15.0,65,0.00,,BKN060,0.00,VWS V14.00,2013-04-01 02:45:00,
2013-03-31 22:50:00,47.7,36.5,29.66,NW,315,5.0,13.0,65,0.00,,BKN060,0.00,VWS V14.00,2013-04-01 02:50:00,
2013-03-31 22:55:00,47.6,35.6,29.66,West,268,9.0,13.0,63,0.00,,BKN060,0.00,VWS V14.00,2013-04-01 02:55:00,
2013-03-31 23:00:00,47.5,35.5,29.67,NW,314,2.0,7.0,63,0.00,,BKN060,0.00,VWS V14.00,2013-04-01 03:00:00,
2013-03-31 23:05:00,47.2,35.3,29.67,WNW,287,10.0,11.0,63,0.00,,FEW070,0.00,VWS V14.00,2013-04-01 03:05:00,
2013-03-31 23:10:00,47.0,34.7,29.67,WNW,296,5.0,7.0,62,0.00,,FEW070,0.00,VWS V14.00,2013-04-01 03:10:00,
2013-03-31 23:15:00,46.9,34.6,29.68,West,259,10.0,12.0,62,0.00,,FEW070,0.00,VWS V14.00,2013-04-01 03:15:00,
2013-03-31 23:20:00,46.8,34.9,29.68,NW,318,0.0,5.0,63,0.00,,FEW070,0.00,VWS V14.00,2013-04-01 03:20:00,
2013-03-31 23:25:00,46.7,34.8,29.68,WNW,302,13.0,17.0,63,0.00,,FEW070,0.00,VWS V14.00,2013-04-01 03:25:00,
2013-03-31 23:30:00,46.5,34.6,29.68,WNW,287,4.0,9.0,63,0.00,,FEW070,0.00,VWS V14.00,2013-04-01 03:30:00,
2013-03-31 23:35:00,46.3,34.8,29.68,WNW,294,0.0,16.0,64,0.00,,FEW070,0.00,VWS V14.00,2013-04-01 03:35:00,
2013-03-31 23:40:00,46.0,34.5,29.69,NW,325,10.0,13.0,64,0.00,,FEW070,0.00,VWS V14.00,2013-04-01 03:40:00,
2013-03-31 23:45:00,45.7,33.8,29.69,North,355,7.0,15.0,63,0.00,,FEW070,0.00,VWS V14.00,2013-04-01 03:45:00,
2013-03-31 23:50:00,45.5,33.2,29.70,NW,319,4.0,11.0,62,0.00,,FEW070,0.00,VWS V14.00,2013-04-01 03:50:00,
2013-03-31 23:55:00,45.2,33.0,29.70,NW,307,6.0,13.0,62,0.00,,FEW070,0.00,VWS V14.00,2013-04-01 03:55:00,